Theta_e
319 316 308 306 306 306 306 306 307 309 309 310 310 310 310 310 314 316 316 317 321 322 319 320 321 322 323 326 329 330 335 332 338 340 339 338 341 341 340 339 339 340 346 349 345 331 339 339 342 340 344 344 353 353
317 315 308 306 306 306 306 306 308 309 309 310 310 310 310 311 315 317 316 317 317 319 319 320 319 319 320 321 323 324 330 331 338 338 336 335 337 335 333 337 333 345 339 342 344 344 336 336 341 340 342 346 344 344
316 312 307 306 305 305 305 306 308 309 309 310 310 310 310 310 313 315 316 316 318 319 318 317 319 322 321 320 321 324 323 329 334 329 334 332 334 332 336 335 338 338 337 342 341 340 338 338 336 339 341 344 344 349
315 309 306 305 304 305 305 306 308 309 309 309 310 310 310 310 312 315 316 317 316 316 321 318 320 319 320 320 322 323 323 322 327 331 333 333 337 331 332 333 337 338 339 339 340 339 338 337 337 337 336 337 340 343
311 307 306 304 304 305 305 306 308 309 309 309 309 310 310 310 312 315 316 316 317 316 321 318 317 320 323 323 322 323 324 323 320 325 333 338 335 338 335 337 339 335 337 342 346 338 337 336 336 337 339 341 338 348
308 307 305 304 304 305 305 307 308 309 309 309 309 310 310 310 314 315 317 317 316 315 317 323 316 318 321 324 325 323 324 324 320 323 325 329 334 340 343 345 338 334 334 336 338 337 336 334 333 333 336 337 340 345
307 306 304 304 304 304 305 307 308 309 309 309 309 309 310 312 315 316 318 314 316 315 318 321 319 320 324 324 322 323 323 323 322 322 324 325 327 336 335 336 331 337 335 334 335 335 333 332 331 332 330 333 337 345
306 304 304 303 303 304 305 308 310 309 309 309 309 310 312 314 315 315 316 316 316 316 318 322 322 322 325 325 325 322 325 323 324 325 325 327 328 335 342 337 333 333 335 336 334 336 332 333 335 334 339 338 344 343
304 304 304 303 304 305 306 310 309 309 309 309 310 312 314 314 314 315 315 315 316 316 320 321 324 326 322 325 326 327 323 327 324 327 327 328 331 337 338 337 339 337 337 335 333 334 334 336 333 340 343 344 346 343
304 303 303 304 304 306 307 310 309 309 309 309 312 313 316 315 315 315 315 316 316 315 315 320 316 321 321 324 330 332 329 328 331 328 325 328 329 330 331 333 334 334 334 334 337 339 338 337 336 335 342 343 336 332
303 303 304 304 305 306 308 309 309 309 309 312 314 316 314 314 314 316 320 320 320 321 319 317 317 320 318 328 332 329 336 332 331 329 330 332 333 331 329 332 330 328 330 335 335 336 334 333 332 330 331 330 328 328
303 303 304 304 305 306 309 308 309 309 311 313 315 313 314 315 318 321 322 319 320 321 318 320 323 319 319 325 329 329 335 331 338 331 331 332 334 339 332 332 330 329 329 331 335 335 337 337 333 327 326 329 331 331
303 304 304 305 306 307 309 308 309 310 312 314 315 315 317 317 319 323 324 324 324 320 322 327 327 328 326 326 329 329 335 335 330 337 340 339 336 336 333 333 332 329 331 336 342 341 334 331 330 330 331 337 333 329
303 304 305 305 305 308 309 309 309 312 312 317 319 316 320 320 319 319 318 319 321 324 325 324 324 329 329 330 326 330 329 333 338 337 338 333 333 335 337 335 339 335 336 340 340 340 340 339 338 338 338 339 336 335
302 304 304 304 305 308 309 309 309 311 314 318 320 319 321 317 320 322 319 324 324 324 322 322 323 328 329 331 333 330 335 337 339 335 335 328 329 330 337 337 337 340 339 338 337 337 336 335 335 333 334 333 331 330
303 304 304 305 306 309 309 310 311 313 314 317 318 320 321 321 323 325 325 325 321 322 321 321 325 328 328 329 334 333 336 334 332 335 333 331 333 334 337 337 337 337 335 335 335 334 333 333 333 332 331 330 329 328
303 306 307 306 308 309 310 312 313 314 314 317 319 316 319 321 322 323 323 324 322 321 323 326 329 329 328 331 332 332 334 333 331 328 327 326 331 335 337 336 336 335 334 334 333 333 332 332 331 330 328 329 328 327
305 308 306 307 309 310 311 312 313 314 317 316 316 316 319 322 323 323 323 322 322 323 324 325 325 331 333 335 333 330 329 327 326 329 326 322 330 335 335 335 335 335 333 332 332 332 330 327 325 323 325 326 326 325
306 308 306 308 310 312 313 313 314 317 316 314 314 315 318 320 321 321 321 321 321 322 323 325 327 330 332 332 333 333 329 326 326 325 325 326 331 336 335 334 332 332 331 329 328 326 326 325 324 323 323 323 320 321
306 308 308 309 312 314 314 314 313 316 317 319 320 322 322 322 321 320 320 320 321 323 325 326 328 330 329 329 327 329 331 330 329 332 334 335 335 335 333 332 330 330 328 328 327 326 325 323 323 322 321 320 320 319
308 308 308 309 312 313 314 315 315 313 316 318 322 322 323 321 321 322 322 319 322 325 325 325 327 326 326 328 328 325 326 328 332 331 333 336 335 333 334 332 331 329 327 327 325 326 327 324 324 322 322 322 321 321
309 309 309 309 311 314 314 314 317 318 318 323 323 323 322 322 322 322 320 324 325 324 325 326 326 327 326 326 326 327 328 328 329 327 328 333 332 332 333 333 331 328 327 328 328 324 327 329 326 325 323 324 324 322
311 311 311 311 314 312 311 315 319 321 325 325 324 324 322 323 322 321 324 323 324 323 325 326 323 326 326 327 328 329 329 329 330 330 329 330 331 331 332 333 332 330 327 328 327 326 327 326 325 323 322 323 323 321
312 312 314 315 314 313 315 317 320 321 323 325 325 324 323 324 323 324 327 326 324 324 325 326 326 327 326 328 328 328 329 331 331 330 330 329 329 329 331 331 332 330 329 328 328 327 327 323 322 322 322 322 322 322
310 312 312 307 315 318 320 318 322 321 323 321 323 322 321 322 325 327 328 327 327 327 326 325 326 326 327 328 326 326 328 327 324 322 327 330 327 327 329 330 329 331 329 327 327 326 327 326 325 324 324 324 323 323
308 312 313 315 315 319 320 322 322 323 322 323 323 323 320 322 327 328 329 327 327 328 328 328 328 325 327 326 328 326 327 325 325 324 324 325 325 325 323 322 323 326 328 327 327 326 327 326 326 324 322 323 324 324
313 319 316 316 318 319 320 321 320 320 323 324 322 323 324 327 330 328 326 325 325 325 328 327 326 324 323 324 327 326 326 326 325 325 324 323 323 324 326 324 323 326 325 325 325 325 325 326 326 325 324 324 324 324
317 316 319 318 319 319 322 321 323 323 323 321 322 325 327 328 327 324 322 325 324 324 325 327 325 325 325 326 326 325 324 324 324 324 323 322 324 324 324 324 323 321 321 322 325 325 325 325 325 324 325 324 324 323
316 315 317 319 320 322 322 323 322 321 322 323 325 327 327 326 324 324 325 325 323 323 322 322 324 325 323 323 324 324 325 324 322 321 321 320 320 322 323 322 322 321 321 320 320 321 323 323 324 325 324 324 324 324
317 315 319 320 322 322 321 319 323 321 322 322 322 324 325 324 325 325 325 325 325 325 324 325 324 322 321 322 321 322 322 322 322 321 320 321 321 322 322 322 322 322 322 322 321 322 322 320 321 323 323 323 323 323
317 318 320 320 322 322 322 321 321 320 321 322 321 323 323 324 324 324 326 325 323 324 325 326 325 324 324 324 324 322 320 321 321 321 322 322 322 322 322 321 321 321 321 322 324 323 323 321 320 322 323 323 323 322
318 319 321 323 321 320 320 322 322 323 324 324 325 324 324 324 326 322 323 324 325 324 325 326 326 326 324 324 323 323 323 323 321 320 322 324 323 322 322 321 321 320 321 321 320 320 322 322 321 321 321 321 322 323
319 320 321 322 323 323 322 323 325 325 325 325 325 325 325 326 326 323 323 324 324 324 325 325 322 322 324 322 321 322 322 322 322 321 322 321 321 320 319 319 321 320 320 320 320 320 319 320 321 321 321 321 321 321
Wind_Speed
24 21 18 16 14 13 12 10 8 8 8 6 6 7 7 6 4 6 6 6 3 3 7 7 8 4 4 1 1 5 3 5 4 4 3 2 3 2 3 3 3 3 3 3 4 3 4 11 11 4 8 2 10 17
24 22 18 16 14 13 12 10 8 8 8 6 5 6 6 6 4 4 4 4 10 4 6 26 31 31 27 23 3 4 4 4 3 2 1 1 3 3 5 2 3 2 2 4 5 4 8 6 3 5 12 7 8 14
24 22 18 16 14 13 12 10 8 8 8 7 6 6 5 7 7 5 5 8 4 3 8 5 7 15 20 32 33 3 3 4 3 4 4 3 4 3 4 4 1 3 1 2 4 7 7 4 1 4 6 18 18 21
23 21 18 14 13 12 11 9 7 8 8 7 6 6 6 9 7 6 4 3 3 3 4 6 12 17 16 15 28 33 16 4 4 2 3 3 3 3 3 2 3 4 4 4 5 7 8 6 7 9 12 8 13 16
25 22 17 14 13 11 10 9 8 9 8 7 6 7 7 7 7 6 8 11 8 2 3 6 26 21 14 15 24 35 26 11 1 1 2 3 3 3 2 1 3 4 6 4 5 8 5 9 6 5 9 11 12 18
25 20 16 14 13 10 9 8 8 9 8 6 6 7 7 7 5 2 1 1 10 7 2 4 7 7 13 8 10 12 15 9 3 5 4 4 4 4 3 3 7 3 8 5 5 7 10 14 10 10 9 6 6 7
22 20 17 14 12 11 10 9 9 8 7 6 6 6 7 7 8 3 1 2 2 7 1 5 5 5 9 6 2 2 4 4 4 3 3 3 4 4 3 4 7 9 14 17 10 6 8 5 7 7 7 18 14 18
20 17 15 12 10 11 11 8 8 8 7 6 6 7 5 5 5 5 6 2 6 2 2 3 5 5 7 2 1 2 2 2 1 4 2 2 2 4 4 10 13 16 11 11 10 11 10 9 17 14 11 8 11 8
18 16 13 10 10 11 10 8 8 9 8 8 8 7 4 3 3 2 3 5 5 2 2 2 3 4 6 3 2 2 3 1 2 5 6 2 3 4 7 10 14 15 12 13 10 11 13 14 7 3 13 11 13 11
17 15 13 10 11 12 12 10 11 10 9 9 6 3 2 4 3 4 3 1 1 2 2 3 3 4 4 3 3 3 1 4 2 5 3 5 8 7 7 11 15 17 15 7 6 8 10 12 6 4 6 11 13 13
15 14 12 11 12 13 10 12 13 12 9 5 3 1 3 7 2 1 2 2 2 2 3 4 6 4 3 2 3 1 3 2 3 5 6 3 4 10 9 7 9 8 11 12 7 4 7 6 11 5 4 10 12 19
14 11 10 10 11 12 12 14 16 13 7 6 5 5 4 1 2 2 3 2 3 3 3 3 4 5 4 2 2 3 3 4 4 4 2 3 3 6 8 10 10 8 6 2 1 5 3 5 16 12 7 5 11 13
11 9 10 12 11 10 14 16 20 13 9 5 3 2 2 2 2 3 4 3 3 3 3 3 4 2 1 2 2 2 4 4 6 1 3 2 4 4 5 3 5 5 5 4 8 12 17 14 15 12 6 14 17 21
10 9 9 9 10 10 14 17 23 12 3 2 3 3 3 3 4 5 4 3 4 0 3 2 3 2 2 3 3 3 4 3 4 3 4 3 5 4 6 5 2 6 3 9 8 12 15 13 12 14 15 17 19 16
8 9 9 8 10 12 14 17 19 12 2 2 2 4 5 5 4 4 6 2 2 1 2 3 3 1 3 3 3 2 1 4 4 3 3 3 6 4 5 2 4 9 11 9 9 12 12 17 16 15 18 20 22 23
9 7 7 9 12 14 15 13 8 3 1 1 2 2 3 1 3 2 1 1 2 1 1 0 2 2 4 3 3 5 3 4 3 3 4 1 2 8 6 5 9 10 10 8 12 19 17 18 16 16 17 18 18 21
9 3 8 14 15 16 16 5 3 2 2 2 3 3 3 5 6 3 1 1 1 2 1 1 2 5 4 2 3 4 5 4 4 5 4 5 5 7 4 8 11 11 11 15 15 18 19 22 24 21 10 17 20 20
1 6 16 17 21 18 3 2 2 2 3 4 3 4 3 3 2 2 2 2 2 1 1 2 1 2 3 3 3 5 3 2 4 4 4 5 6 2 5 9 11 16 15 16 20 22 22 20 16 13 22 24 22 20
3 12 18 22 17 4 3 3 2 2 5 3 4 3 3 3 2 2 3 3 3 1 2 2 3 3 1 2 5 7 2 3 3 2 3 5 7 2 12 14 15 16 17 17 19 15 19 22 22 24 25 23 19 19
5 13 18 22 5 2 3 2 3 2 3 3 3 2 2 1 2 1 3 3 2 2 3 3 3 1 1 3 4 7 3 4 3 1 1 2 6 2 10 11 10 17 18 17 19 20 17 17 20 21 20 22 22 19
6 12 17 15 2 2 1 2 2 3 3 3 2 3 2 1 2 2 2 4 3 2 3 3 3 4 6 8 11 9 3 1 4 4 3 3 3 8 9 17 17 14 9 8 6 9 15 15 18 19 19 18 17 19
7 10 5 10 2 1 2 4 2 3 2 3 1 1 1 1 1 2 1 3 3 4 4 4 4 4 4 6 4 7 4 6 5 3 4 7 3 3 1 7 8 4 9 11 13 14 14 24 21 22 22 22 22 22
10 5 4 4 2 1 5 2 2 3 2 2 2 1 1 1 2 1 2 3 3 4 4 2 3 4 6 8 5 17 24 4 2 5 7 10 13 12 4 5 6 11 4 9 16 11 9 17 23 21 17 19 21 19
5 3 2 2 3 3 1 2 3 3 3 2 2 1 1 2 1 2 2 2 3 3 3 4 1 2 3 6 3 4 2 10 6 8 14 8 2 2 10 12 7 16 16 14 14 12 11 19 20 16 16 16 17 15
3 3 3 3 2 1 2 2 2 1 2 2 3 1 2 2 1 2 2 3 4 2 4 4 4 3 3 3 2 3 10 18 8 5 7 11 6 6 9 9 13 11 14 12 8 4 13 14 15 16 14 19 21 20
2 5 6 6 3 3 3 2 2 1 2 1 2 2 1 1 2 1 3 3 3 3 2 3 4 3 2 3 3 1 1 7 8 4 4 6 1 3 2 3 2 7 16 22 23 21 17 17 15 15 15 14 18 22
1 4 4 4 3 2 2 2 0 1 1 2 2 1 2 2 3 3 3 3 1 3 5 5 3 2 2 1 2 0 4 5 5 4 5 8 6 2 10 10 7 11 13 13 20 24 20 18 21 22 18 15 13 15
2 3 1 3 2 2 1 2 2 2 1 2 2 2 4 3 1 3 3 11 9 8 8 2 2 1 5 2 5 3 3 3 7 7 6 11 11 9 11 11 9 5 2 4 7 6 4 12 16 16 15 22 26 22
2 2 2 2 2 1 1 1 1 2 1 1 2 3 3 2 3 3 10 18 20 17 17 12 6 8 7 7 7 7 8 10 5 4 7 3 4 4 2 4 8 6 2 2 1 4 5 6 10 11 7 9 11 13
2 2 1 1 1 2 2 3 1 2 3 2 2 2 1 4 10 20 21 21 15 10 8 16 15 12 11 17 12 16 15 14 12 4 3 2 1 7 7 12 8 6 8 1 7 8 8 7 8 7 6 5 8 11
1 1 1 1 2 2 1 2 2 1 2 1 1 1 1 3 8 22 23 19 16 20 17 15 17 17 15 17 10 8 4 5 5 8 3 4 6 7 3 2 5 9 11 10 5 11 14 11 10 11 11 12 13 11
1 2 1 1 1 1 2 2 3 2 3 3 1 2 2 4 5 5 15 17 17 15 16 13 14 11 9 12 16 13 6 3 3 3 6 6 6 6 3 3 2 3 3 4 1 5 5 9 12 18 17 21 17 15
1 1 2 3 2 3 3 3 1 1 5 4 5 3 2 2 2 3 7 10 11 13 14 12 14 13 13 16 15 12 11 13 14 12 8 6 6 9 12 13 9 7 7 9 10 13 15 15 9 12 12 8 5 14
Wind_Direction
245 243 237 244 248 254 258 266 268 272 272 277 273 274 276 276 235 237 265 313 286 259 283 261 275 293 325 282 355 294 359 353 34 57 101 209 146 198 319 275 304 349 58 351 333 307 235 356 327 234 136 138 92 60
239 238 228 236 245 246 252 258 259 259 263 258 265 267 276 243 248 240 272 287 317 228 259 298 287 267 248 248 322 311 212 212 140 102 309 163 199 154 160 292 337 154 182 186 170 229 259 303 214 317 118 189 141 95
233 228 221 226 238 240 245 247 252 254 253 245 251 256 265 227 231 236 266 315 322 282 283 257 244 297 264 229 227 191 285 201 155 173 151 212 233 142 150 238 282 307 159 81 41 235 251 249 262 324 55 121 114 118
226 213 214 221 227 234 235 237 236 249 254 242 240 249 252 216 231 240 251 255 306 280 281 287 313 307 289 264 213 216 234 283 105 128 150 164 236 157 177 144 214 205 215 152 251 291 281 240 214 169 191 185 165 169
208 205 206 210 215 224 231 228 231 238 242 239 238 235 247 221 226 233 254 256 246 251 290 293 306 286 299 266 215 215 223 233 183 183 156 227 166 149 93 77 268 195 214 139 212 224 206 271 269 158 209 200 164 182
197 195 195 202 208 218 221 220 231 237 224 226 232 221 229 215 199 209 282 237 233 214 291 292 293 286 302 280 242 196 209 217 181 171 218 241 178 117 154 166 266 268 304 231 240 221 199 239 302 266 235 209 198 171
187 185 189 196 208 220 212 213 230 224 207 205 214 206 208 201 199 207 277 320 201 191 266 289 296 267 267 228 274 189 157 178 145 199 237 230 272 94 130 203 229 235 237 251 223 304 324 242 255 202 226 248 195 178
176 180 185 190 207 204 200 208 209 197 189 193 184 177 187 205 212 280 261 235 172 232 251 285 276 314 358 341 275 182 167 101 248 201 312 218 296 168 203 219 216 221 224 269 261 243 253 312 306 312 311 184 128 93
169 178 183 195 193 190 194 191 192 179 177 176 166 154 146 177 203 238 202 176 194 237 287 273 276 284 345 316 277 312 134 154 237 191 222 124 279 225 220 197 198 212 206 230 241 229 247 272 293 106 93 100 94 97
174 179 181 185 182 180 191 184 178 172 169 165 162 167 187 207 205 146 115 173 191 194 237 251 283 274 2 333 296 345 183 196 224 240 125 181 237 245 249 188 209 215 217 198 177 208 227 257 132 155 120 124 115 114
176 178 180 185 177 181 186 178 170 157 154 186 185 146 127 141 134 214 175 219 176 224 207 235 220 246 286 231 264 355 321 238 186 252 157 235 247 232 226 229 230 185 178 192 193 187 212 245 151 156 135 116 114 119
170 174 178 178 180 179 176 178 168 164 176 181 145 123 128 163 204 228 195 166 216 239 235 215 232 197 259 144 87 355 257 315 241 327 176 236 272 293 199 209 225 226 247 344 86 212 121 211 172 138 114 225 118 90
161 164 165 168 175 178 179 182 179 177 168 150 185 138 162 146 162 213 199 208 218 208 264 323 317 212 286 65 70 46 26 266 306 237 235 224 277 332 117 78 4 298 284 35 63 96 98 98 110 120 128 218 99 118
157 166 165 173 178 177 180 182 178 177 221 209 167 149 214 185 231 201 211 195 225 291 342 325 284 273 235 131 150 146 230 294 315 296 250 221 252 222 129 66 224 265 235 114 98 96 101 106 106 108 107 105 122 130
163 166 172 177 177 174 176 175 186 203 242 220 196 208 214 230 249 240 216 256 353 46 18 343 310 289 285 173 186 120 246 252 236 246 288 268 264 265 145 145 128 121 109 99 103 99 98 99 94 81 92 112 117 118
161 168 191 178 172 164 164 165 168 194 259 241 238 278 272 259 301 338 52 62 4 344 327 53 287 285 259 215 160 201 193 236 260 272 277 333 235 274 248 126 116 105 109 127 115 115 117 116 115 116 117 115 120 129
171 205 169 165 160 155 149 135 138 176 260 256 249 230 213 248 250 217 141 201 279 50 266 304 253 230 299 244 225 192 212 190 218 248 263 307 330 292 140 110 114 123 125 116 114 112 114 117 116 112 104 122 133 137
154 135 157 156 150 149 128 120 138 172 247 243 240 250 240 208 191 224 186 149 124 203 233 242 283 273 279 281 339 326 290 235 257 271 296 327 304 195 112 106 110 112 110 112 111 112 114 110 110 116 124 131 131 134
121 151 160 159 152 144 137 172 192 239 238 248 248 244 240 228 195 129 146 163 185 201 304 267 244 222 259 316 312 294 268 264 258 214 244 253 336 87 97 104 111 113 115 117 115 120 128 132 135 135 138 141 137 144
75 158 166 166 155 170 125 143 196 248 261 242 230 231 189 200 144 165 168 168 166 187 194 227 230 154 230 248 257 278 272 238 282 295 37 35 1 261 115 116 116 122 122 126 129 130 130 136 146 148 150 151 150 159
115 150 173 189 312 304 265 161 217 227 258 251 210 142 214 174 214 215 221 159 177 221 219 232 236 225 215 242 260 266 285 355 227 188 174 36 326 332 108 134 140 141 129 131 136 162 157 176 177 174 171 171 179 175
118 128 121 199 294 257 251 223 235 276 267 268 191 171 208 266 265 238 262 200 218 225 200 184 201 216 234 247 253 247 285 328 203 193 64 136 207 227 154 151 149 150 161 191 189 172 180 200 199 196 195 201 202 197
120 129 135 175 256 62 266 199 246 236 242 256 154 185 266 251 242 230 242 236 253 234 219 164 169 226 244 256 331 321 310 268 214 235 219 213 186 186 208 244 223 174 175 192 185 178 184 185 182 187 180 181 190 194
116 147 172 202 174 248 164 267 244 264 276 311 188 240 274 251 303 307 283 242 244 225 155 143 344 320 355 1 313 271 350 157 240 172 184 164 100 238 235 234 196 191 189 192 185 182 175 183 193 195 196 195 196 205
100 255 132 272 267 237 217 279 256 257 280 333 312 295 278 151 241 233 267 296 328 305 162 156 198 213 222 224 291 10 110 151 141 114 122 152 157 147 172 180 235 223 201 165 131 232 222 203 194 197 198 206 209 211
189 218 167 192 193 199 202 220 251 265 194 257 267 278 61 283 278 355 337 313 322 3 77 160 164 173 104 155 140 22 98 89 103 68 75 67 108 177 162 134 158 218 208 202 195 209 212 205 209 220 218 212 221 222
292 201 209 222 164 192 260 267 291 114 304 316 285 282 235 260 37 330 279 268 337 345 340 17 68 103 131 82 147 53 72 71 33 293 24 33 40 273 191 130 118 129 164 208 227 211 209 210 214 226 236 234 226 200
312 341 11 300 214 196 277 175 207 219 191 260 316 296 353 26 193 251 264 303 314 348 358 209 228 53 348 36 47 61 84 351 342 18 80 68 73 82 100 134 132 114 124 138 131 129 178 209 211 232 256 244 240 220
284 277 3 333 345 310 214 47 37 289 248 133 46 28 327 330 308 335 4 18 48 55 36 24 14 344 14 34 20 355 358 5 25 80 67 31 6 23 128 124 82 41 274 224 193 169 187 226 231 228 219 211 209 214
253 32 9 304 286 245 235 171 207 327 23 108 108 154 304 343 22 41 34 23 24 27 45 48 44 26 37 35 9 57 70 55 39 68 142 124 85 77 83 101 82 62 46 279 254 244 246 283 272 261 249 198 182 182
39 356 254 230 284 327 245 201 108 72 94 274 347 72 200 231 34 27 23 25 29 34 34 50 54 43 37 30 9 341 359 71 31 341 352 89 115 128 234 176 91 67 56 27 312 246 260 260 251 247 251 257 261 246
230 231 240 295 26 356 23 46 350 326 172 174 150 201 13 50 26 330 1 7 19 25 39 33 25 37 45 49 53 50 44 322 279 31 21 31 16 23 354 285 253 296 251 247 289 20 330 282 256 274 276 266 262 249
218 171 274 318 11 17 28 21 124 100 44 29 4 21 68 128 42 285 348 17 27 27 37 57 58 62 69 56 48 43 44 55 60 60 60 29 10 356 349 349 331 345 353 340 328 322 316 309 287 241 248 233 205 203